• In Schweiz
  • Länderverzeichnis
  • Für 7 Tage
  • Wassertemperatur
  • Satellitenkarten
  • Wetterkarte
  • Widgets
  • user-avatar
    Anmelden

    Stündliche Wetter Boma

    Heute, 17 Dezember, Sonntag

    Zeit Temperatur Niederschläge Wind Luftdruck Luftfeuchtigkeit
    00:00 +22°C° 0 mm 0 m/S 699 mmHg 50%
    01:00 +22°C° 0 mm 0 m/S 699 mmHg 52%
    02:00 +21°C° 0 mm 0 m/S 699 mmHg 57%
    03:00 +21°C° 0 mm 0 m/S 699 mmHg 61%
    04:00 +20°C° 0 mm 0 m/S 699 mmHg 66%
    05:00 +21°C° 0 mm 0 m/S 699 mmHg 68%
    06:00 +21°C° 0 mm 0 m/S 700 mmHg 70%
    07:00 +23°C° 0 mm 1 m/S 700 mmHg 72%
    08:00 +26°C° 0 mm 1 m/S 700 mmHg 59%
    09:00 +29°C° 0 mm 1 m/S 701 mmHg 47%
    10:00 +33°C° 0 mm 1 m/S 701 mmHg 34%
    11:00 +35°C° 0 mm 1 m/S 701 mmHg 29%
    12:00 +36°C° 0 mm 1 m/S 700 mmHg 23%
    13:00 +39°C° 0 mm 1 m/S 700 mmHg 18%
    14:00 +39°C° 0 mm 1 m/S 699 mmHg 18%
    15:00 +37°C° 0 mm 1 m/S 699 mmHg 17%
    16:00 +37°C° 0 mm 1 m/S 698 mmHg 17%
    17:00 +34°C° 0 mm 1 m/S 698 mmHg 22%
    18:00 +29°C° 0 mm 0 m/S 698 mmHg 26%
    19:00 +26°C° 0 mm 0 m/S 698 mmHg 30%
    20:00 +25°C° 0 mm 0 m/S 698 mmHg 33%
    21:00 +27°C° 0 mm 1 m/S 699 mmHg 35%
    22:00 +26°C° 0 mm 1 m/S 700 mmHg 38%
    23:00 +25°C° 0 mm 1 m/S 700 mmHg 39%

    Morgen, 18 Dezember, Montag

    Zeit Temperatur Niederschläge Wind Luftdruck Luftfeuchtigkeit
    00:00 +25°C° 0 mm 1 m/S 700 mmHg 39%
    01:00 +24°C° 0 mm 1 m/S 700 mmHg 40%
    02:00 +24°C° 0 mm 1 m/S 700 mmHg 45%
    03:00 +23°C° 0 mm 1 m/S 700 mmHg 51%
    04:00 +22°C° 0 mm 1 m/S 699 mmHg 56%
    05:00 +20°C° 0 mm 0 m/S 700 mmHg 60%
    06:00 +20°C° 0 mm 0 m/S 700 mmHg 65%
    07:00 +20°C° 0 mm 0 m/S 700 mmHg 69%
    08:00 +24°C° 0 mm 0 m/S 701 mmHg 57%
    09:00 +30°C° 0 mm 1 m/S 701 mmHg 45%
    10:00 +33°C° 0 mm 1 m/S 702 mmHg 33%
    11:00 +35°C° 0 mm 1 m/S 701 mmHg 27%
    12:00 +37°C° 0 mm 1 m/S 701 mmHg 20%
    13:00 +40°C° 0 mm 1 m/S 700 mmHg 14%
    14:00 +40°C° 0 mm 1 m/S 699 mmHg 14%
    15:00 +36°C° 0 mm 0 m/S 698 mmHg 14%
    16:00 +35°C° 0 mm 0 m/S 698 mmHg 13%
    17:00 +32°C° 0 mm 0 m/S 697 mmHg 17%
    18:00 +29°C° 0 mm 0 m/S 697 mmHg 20%
    19:00 +26°C° 0 mm 0 m/S 697 mmHg 24%
    20:00 +25°C° 0 mm 0 m/S 698 mmHg 27%
    21:00 +26°C° 0 mm 1 m/S 698 mmHg 29%
    22:00 +26°C° 0 mm 1 m/S 699 mmHg 32%
    23:00 +25°C° 0 mm 1 m/S 699 mmHg 36%

    übermorgen, 19 Dezember, Dienstag

    Zeit Temperatur Niederschläge Wind Luftdruck Luftfeuchtigkeit
    00:00 +24°C° 0 mm 1 m/S 699 mmHg 39%
    01:00 +24°C° 0 mm 1 m/S 699 mmHg 42%
    02:00 +23°C° 0 mm 1 m/S 699 mmHg 51%
    03:00 +22°C° 0 mm 1 m/S 698 mmHg 60%
    04:00 +22°C° 0 mm 1 m/S 698 mmHg 69%
    05:00 +22°C° 0 mm 1 m/S 699 mmHg 74%
    06:00 +22°C° 0 mm 1 m/S 699 mmHg 79%
    07:00 +22°C° 0 mm 1 m/S 699 mmHg 84%
    08:00 +26°C° 0 mm 1 m/S 700 mmHg 70%
    09:00 +29°C° 0 mm 1 m/S 701 mmHg 56%
    10:00 +32°C° 0 mm 1 m/S 701 mmHg 41%
    11:00 +34°C° 0 mm 1 m/S 701 mmHg 33%
    12:00 +36°C° 0 mm 1 m/S 700 mmHg 25%
    13:00 +39°C° 0 mm 1 m/S 699 mmHg 16%
    14:00 +39°C° 0 mm 1 m/S 698 mmHg 15%
    15:00 +39°C° 0 mm 1 m/S 698 mmHg 14%
    16:00 +37°C° 0 mm 1 m/S 697 mmHg 13%
    17:00 +34°C° 0 mm 1 m/S 697 mmHg 17%
    18:00 +29°C° 0 mm 0 m/S 697 mmHg 21%
    19:00 +26°C° 0 mm 0 m/S 697 mmHg 24%
    20:00 +25°C° 0 mm 0 m/S 698 mmHg 27%
    21:00 +27°C° 0 mm 1 m/S 698 mmHg 29%
    22:00 +26°C° 0 mm 1 m/S 699 mmHg 31%
    23:00 +25°C° 0 mm 1 m/S 699 mmHg 34%

    20 Dezember, Mittwoch

    Zeit Temperatur Niederschläge Wind Luftdruck Luftfeuchtigkeit
    00:00 +24°C° 0 mm 1 m/S 699 mmHg 37%
    01:00 +23°C° 0 mm 1 m/S 698 mmHg 40%
    02:00 +23°C° 0 mm 1 m/S 698 mmHg 49%
    03:00 +22°C° 0 mm 1 m/S 698 mmHg 58%
    04:00 +21°C° 0 mm 1 m/S 698 mmHg 67%
    05:00 +22°C° 0 mm 1 m/S 699 mmHg 73%
    06:00 +22°C° 0 mm 1 m/S 699 mmHg 78%
    07:00 +23°C° 0 mm 1 m/S 699 mmHg 83%
    08:00 +26°C° 0 mm 1 m/S 700 mmHg 70%
    09:00 +29°C° 0 mm 1 m/S 701 mmHg 57%
    10:00 +31°C° 0 mm 0 m/S 701 mmHg 43%
    11:00 +34°C° 0 mm 1 m/S 701 mmHg 35%
    12:00 +36°C° 0 mm 1 m/S 700 mmHg 26%
    13:00 +37°C° 0 mm 1 m/S 699 mmHg 17%
    14:00 +37°C° 0 mm 1 m/S 699 mmHg 16%
    15:00 +37°C° 0 mm 1 m/S 698 mmHg 16%
    16:00 +37°C° 0 mm 1 m/S 697 mmHg 15%
    17:00 +34°C° 0 mm 1 m/S 697 mmHg 18%
    18:00 +31°C° 0 mm 1 m/S 698 mmHg 22%
    19:00 +26°C° 0 mm 0 m/S 698 mmHg 26%
    20:00 +25°C° 0 mm 0 m/S 698 mmHg 27%
    21:00 +26°C° 0 mm 1 m/S 699 mmHg 28%
    22:00 +26°C° 0 mm 1 m/S 699 mmHg 29%
    23:00 +25°C° 0 mm 1 m/S 699 mmHg 31%

    21 Dezember, Donnerstag

    Zeit Temperatur Niederschläge Wind Luftdruck Luftfeuchtigkeit
    00:00 +24°C° 0 mm 1 m/S 699 mmHg 33%
    01:00 +21°C° 0 mm 0 m/S 699 mmHg 35%
    02:00 +23°C° 0 mm 1 m/S 699 mmHg 45%
    03:00 +22°C° 0 mm 1 m/S 699 mmHg 54%
    04:00 +21°C° 0 mm 1 m/S 699 mmHg 64%
    05:00 +22°C° 0 mm 1 m/S 699 mmHg 70%
    06:00 +20°C° 0 mm 0 m/S 700 mmHg 76%
    07:00 +21°C° 0 mm 0 m/S 700 mmHg 82%
    08:00 +24°C° 0 mm 0 m/S 701 mmHg 69%
    09:00 +27°C° 0 mm 0 m/S 702 mmHg 55%
    10:00 +31°C° 0 mm 0 m/S 702 mmHg 42%
    11:00 +34°C° 0 mm 1 m/S 702 mmHg 34%
    12:00 +36°C° 0 mm 1 m/S 701 mmHg 26%
    13:00 +39°C° 0 mm 1 m/S 700 mmHg 18%
    14:00 +37°C° 0 mm 1 m/S 699 mmHg 18%
    15:00 +37°C° 0 mm 1 m/S 698 mmHg 17%
    16:00 +37°C° 0 mm 1 m/S 698 mmHg 16%
    17:00 +34°C° 0 mm 1 m/S 698 mmHg 20%
    18:00 +31°C° 0 mm 1 m/S 698 mmHg 25%
    19:00 +26°C° 0 mm 0 m/S 698 mmHg 29%
    20:00 +25°C° 0 mm 0 m/S 698 mmHg 32%
    21:00 +27°C° 0 mm 1 m/S 699 mmHg 35%
    22:00 +26°C° 0 mm 1 m/S 699 mmHg 38%
    23:00 +25°C° 0 mm 1 m/S 699 mmHg 42%

    22 Dezember, Freitag

    Zeit Temperatur Niederschläge Wind Luftdruck Luftfeuchtigkeit
    00:00 +24°C° 0 mm 1 m/S 699 mmHg 46%
    01:00 +24°C° 0 mm 1 m/S 699 mmHg 50%
    02:00 +23°C° 0 mm 1 m/S 699 mmHg 59%
    03:00 +23°C° 0 mm 1 m/S 699 mmHg 68%
    04:00 +22°C° 0 mm 1 m/S 699 mmHg 77%
    05:00 +23°C° 0 mm 1 m/S 699 mmHg 81%
    06:00 +23°C° 0 mm 1 m/S 700 mmHg 84%
    07:00 +23°C° 0 mm 1 m/S 700 mmHg 88%
    08:00 +25°C° 0 mm 1 m/S 701 mmHg 76%
    09:00 +28°C° 0 mm 1 m/S 701 mmHg 64%
    10:00 +31°C° 0 mm 1 m/S 702 mmHg 52%
    11:00 +33°C° 0 mm 1 m/S 701 mmHg 43%
    12:00 +36°C° 0 mm 1 m/S 701 mmHg 34%
    13:00 +39°C° 0 mm 1 m/S 700 mmHg 26%
    14:00 +37°C° 0 mm 1 m/S 699 mmHg 26%
    15:00 +36°C° 0 mm 1 m/S 698 mmHg 27%
    16:00 +35°C° 0 mm 1 m/S 697 mmHg 27%
    17:00 +33°C° 0 mm 1 m/S 697 mmHg 34%
    18:00 +31°C° 0 mm 1 m/S 697 mmHg 40%
    19:00 +28°C° 0 mm 1 m/S 697 mmHg 47%
    20:00 +27°C° 0 mm 1 m/S 698 mmHg 53%
    21:00 +27°C° 0 mm 1 m/S 698 mmHg 58%
    22:00 +26°C° 0 mm 1 m/S 699 mmHg 64%
    23:00 +25°C° 0 mm 1 m/S 699 mmHg 68%
    Mehr zeigen